Weather History for KPSM - February, 2014

Change the Weather History Date:

Tuesday, February 18, 2014

  Actual Average Record
Temperature  
Mean Temperature 18 °F -  
Max Temperature 32 °F 35 °F 65 °F (1981)
Min Temperature 4 °F 19 °F -8 °F (1979)
Degree Days  
Heating Degree Days 47    
Moisture  
Dew Point 16 °F    
Average Humidity 83    
Maximum Humidity 100    
Minimum Humidity 60    
Precipitation  
Precipitation 0.41 in - - ()
Snow  
Snow 0.00 in - - ()
Snow Depth 20.00 in    
Sea Level Pressure  
Sea Level Pressure 30.12 in    
Wind  
Wind Speed 6 mph (NNW)    
Max Wind Speed 16 mph    
Max Gust Speed 18 mph    
Visibility 6 miles    
Events Fog , Snow    
Averages and records for this station are not official NWS values.
T = Trace of Precipitation, MM = Missing Value Source: NWS Daily Summary

Daily Weather History Graph

Daily Weather History Graph

Search for Another Location

Airport or City:

Trip Planner

Search our weather history database for the weather conditions in past years. The results will help you decide how hot, cold, wet, or windy it might be!

Date:

Astronomy

Feb. 18, 2014 Rise Set
Actual Time 6:36 AM EST 5:18 PM EST
Civil Twilight 6:07 AM EST 5:47 PM EST
Nautical Twilight 5:34 AM EST 6:20 PM EST
Astronomical Twilight 5:01 AM EST 6:53 PM EST
Moon 9:16 PM EST (2/18) 8:00 AM EST (2/18)
Length of Visible Light 11h 39m
Length of Day
10h 41m
Waning Gibbous, 87% of the Moon is Illuminated
Feb 18
Waning Gibbous
Feb 22
Last Quarter
Mar 1
New
Mar 8
First Quarter
Mar 16
Full

Hourly Weather History & Observations

Time (EST) Temp. Windchill Dew Point Humidity Pressure Visibility Wind Dir Wind Speed Gust Speed Precip Events Conditions
12:58 AM 8.1 °F 1.4 °F 0.9 °F 72% 30.37 in 10.0 mi WNW 3.5 mph - N/A   Clear
1:58 AM 7.2 °F - -2.9 °F 63% 30.37 in 10.0 mi NW 2.3 mph - N/A   Partly Cloudy
2:58 AM 5.5 °F -1.5 °F -2.7 °F 69% 30.36 in 10.0 mi WNW 3.5 mph - N/A   Mostly Cloudy
3:58 AM 6.1 °F -0.9 °F -1.7 °F 71% 30.36 in 10.0 mi NW 3.5 mph - N/A   Overcast
4:58 AM 4.8 °F -2.3 °F -2.4 °F 72% 30.35 in 10.0 mi NNW 3.5 mph - N/A   Overcast
5:58 AM 5.5 °F -1.5 °F -2.2 °F 70% 30.33 in 10.0 mi NW 3.5 mph - N/A   Overcast
6:58 AM 7.7 °F 1.0 °F -0.4 °F 70% 30.34 in 10.0 mi West 3.5 mph - N/A   Overcast
7:58 AM 10.4 °F 0.8 °F -0.4 °F 62% 30.33 in 10.0 mi NNW 5.8 mph - N/A   Overcast
8:58 AM 13.3 °F 5.6 °F 1.9 °F 61% 30.28 in 10.0 mi NE 4.6 mph - N/A   Overcast
9:58 AM 17.4 °F 7.1 °F 6.3 °F 62% 30.28 in 10.0 mi West 8.1 mph - N/A   Mostly Cloudy
10:58 AM 21.2 °F 14.9 °F 9.3 °F 60% 30.24 in 10.0 mi NNE 4.6 mph - N/A   Overcast
11:39 AM 23.0 °F 17.0 °F 12.2 °F 63% 30.18 in 10.0 mi North 4.6 mph - N/A   Overcast
11:58 AM 24.8 °F 19.1 °F 13.1 °F 61% 30.18 in 10.0 mi NNE 4.6 mph - N/A   Overcast
12:48 PM 24.8 °F 17.9 °F 15.8 °F 69% 30.12 in 1.0 mi NW 5.8 mph - N/A Snow Light Snow
12:58 PM 24.8 °F 17.9 °F 18.1 °F 76% 30.15 in 0.8 mi NW 5.8 mph - 0.00 in Snow Light Snow
1:58 PM 25.3 °F 19.7 °F 25.2 °F 99% 30.10 in 0.6 mi North 4.6 mph - 0.03 in Snow Light Snow
2:58 PM 31.1 °F 23.7 °F 30.9 °F 99% 30.05 in 0.5 mi East 8.1 mph - 0.02 in Fog , Snow Light Snow
3:28 PM 32.0 °F 26.4 °F 32.0 °F 100% 30.01 in 0.2 mi NNE 5.8 mph - N/A Fog , Snow Snow
3:58 PM 32.4 °F 25.3 °F 32.2 °F 99% 30.00 in 0.2 mi NNE 8.1 mph - 0.09 in Fog , Snow Snow
4:58 PM 31.6 °F 22.6 °F 31.6 °F 100% 29.95 in 0.2 mi North 11.5 mph - 0.15 in Fog , Snow Snow
5:58 PM 23.2 °F 11.4 °F 23.0 °F 99% 29.95 in 0.4 mi NNW 12.7 mph - 0.07 in Fog , Snow Snow
6:40 PM 23.0 °F 11.1 °F 23.0 °F 100% 29.92 in 1.0 mi North 12.7 mph - N/A Snow Light Snow
6:58 PM 23.2 °F 12.6 °F 23.0 °F 99% 29.93 in 1.2 mi NNE 10.4 mph 18.4 mph 0.04 in Snow Light Snow
7:28 PM 24.8 °F 14.0 °F 24.8 °F 100% 29.89 in 3.0 mi North 11.5 mph - N/A Snow Light Snow
7:58 PM 25.0 °F 12.2 °F 24.8 °F 99% 29.91 in 3.0 mi North 16.1 mph - 0.01 in Snow Light Snow
8:20 PM 24.8 °F 12.4 °F 24.8 °F 100% 29.89 in 6.0 mi North 15.0 mph - N/A Snow Light Snow
8:36 PM 26.6 °F 15.7 °F 24.8 °F 93% 29.90 in 7.0 mi NNW 12.7 mph - N/A   Overcast
8:58 PM 24.8 °F 13.4 °F 24.3 °F 98% 29.93 in 8.0 mi NW 12.7 mph - 0.00 in   Overcast
9:58 PM 24.6 °F 13.2 °F 23.4 °F 95% 29.94 in 8.0 mi NW 12.7 mph - N/A   Overcast
10:58 PM 25.9 °F 16.6 °F 24.3 °F 94% 29.99 in 8.0 mi West 9.2 mph - N/A   Overcast
11:58 PM 26.1 °F 17.6 °F 24.8 °F 95% 30.00 in 8.0 mi West 8.1 mph - N/A   Overcast